RH
86 88 91 92 90 88 86 86 85 74 61 53 50 50 53 56 55 55 61 62 57 59 65 66 64 66 66 65 61 58 58 59 58 60 62 62 62 62 63 66 68 69 71 73 75 78 80 80 79 80 80 81 81 81 82 82 80 77 76 77 77 73 67 74 91 90 68 61 62 51 43 48 54 58 62 64 66 64 56 48 46 47 48 50 52
87 90 92 92 89 87 86 86 82 69 58 53 51 52 55 55 53 56 61 58 55 59 65 66 65 66 66 65 62 59 59 60 59 61 62 61 62 63 63 64 63 63 65 65 67 72 78 80 81 81 82 83 83 82 81 81 82 79 77 77 77 76 73 70 77 86 76 62 60 56 49 54 60 61 62 64 68 69 62 52 49 51 51 52 55
87 91 93 91 89 88 87 86 80 69 61 55 51 52 56 55 53 55 59 58 57 59 61 62 64 64 65 65 63 60 60 60 60 61 63 63 64 64 64 64 63 62 62 63 64 68 74 78 80 81 83 83 83 83 83 80 81 81 79 78 77 76 76 74 73 78 77 69 65 63 59 60 64 64 64 68 72 73 69 60 55 55 54 55 58
88 91 92 91 89 87 86 85 78 68 60 54 50 51 54 54 51 54 59 61 61 60 57 58 61 63 64 64 62 60 59 59 60 60 60 61 62 63 64 64 65 65 64 65 65 68 72 75 77 79 82 84 84 84 85 83 81 82 81 80 80 78 77 78 76 75 77 77 73 72 71 70 69 68 72 79 79 74 70 67 66 63 57 57 60
89 91 92 90 88 85 84 82 75 65 58 55 52 51 53 54 52 54 60 63 63 60 56 56 58 61 63 62 60 59 58 59 59 58 58 59 59 59 60 60 64 67 66 66 66 68 71 74 75 78 83 86 86 84 84 85 84 83 83 81 80 80 79 79 80 80 82 84 81 78 79 78 77 77 81 89 92 86 77 70 69 68 62 60 63
89 90 91 89 86 84 81 78 76 72 66 61 56 54 53 54 55 57 61 63 62 61 59 56 56 57 59 60 59 59 59 60 60 58 56 57 57 56 56 57 60 62 63 64 65 68 71 73 74 78 84 86 83 78 77 79 80 81 81 81 79 80 80 80 82 85 87 88 87 86 85 84 85 85 86 91 98 99 94 85 74 69 67 68 69
89 90 90 86 85 85 83 82 80 74 67 56 49 54 57 55 57 59 60 63 62 59 57 54 52 53 56 59 58 57 57 57 57 55 55 55 57 57 58 59 59 60 61 63 65 68 70 71 73 75 79 82 78 74 73 73 74 74 76 78 80 80 81 81 83 87 90 91 93 92 90 89 90 90 89 93 98 99 98 96 87 77 74 75 74
88 90 89 85 86 88 85 82 71 60 59 46 33 48 61 57 56 59 60 61 60 55 52 50 50 55 58 57 52 50 53 54 54 54 56 57 59 59 58 58 58 58 59 61 63 67 69 69 70 71 73 75 75 74 74 73 74 73 72 76 79 80 81 83 84 89 94 96 96 95 93 92 92 92 90 92 95 93 90 92 93 88 83 80 77
87 90 89 86 89 89 82 74 59 51 58 46 26 41 62 59 56 59 59 59 56 50 48 49 53 59 60 54 47 48 52 52 53 55 57 59 60 58 57 57 57 57 58 60 62 66 68 68 67 67 69 71 72 73 73 74 77 77 73 75 80 82 84 87 89 94 98 99 97 96 96 94 92 91 90 90 92 93 92 94 95 93 88 85 80
87 89 89 88 88 87 80 69 56 53 58 43 25 38 60 62 58 59 60 58 50 44 47 53 58 60 61 54 47 49 52 51 53 55 57 59 58 57 57 57 58 58 58 60 63 65 66 66 63 62 63 65 67 68 67 69 75 81 80 80 83 86 88 92 95 97 98 98 97 98 97 94 91 90 90 91 93 95 94 94 93 91 90 87 82
88 89 90 88 85 85 81 71 67 69 68 54 40 42 56 62 60 61 62 56 45 43 52 61 62 61 62 57 50 51 53 52 55 59 61 61 60 60 61 61 61 61 61 63 65 65 64 61 60 60 61 62 63 63 63 63 67 77 84 87 87 88 91 95 97 95 96 98 98 98 97 93 91 92 91 90 93 93 92 92 92 91 88 86 84
89 89 89 87 85 85 80 76 82 84 80 76 65 54 57 64 63 63 60 50 45 49 55 60 62 63 64 58 52 53 54 54 57 62 64 65 65 67 67 67 65 63 63 66 67 66 63 61 61 61 61 63 62 60 61 63 65 74 87 93 91 88 88 91 92 91 94 98 98 97 97 94 91 91 91 91 93 93 93 94 92 90 87 85 85
88 88 89 87 86 84 78 80 90 88 82 85 82 71 67 66 63 64 59 50 50 53 52 54 60 65 65 59 54 55 55 55 58 61 63 65 67 69 69 67 65 63 65 68 68 68 67 66 65 64 63 65 62 59 65 73 78 86 94 97 93 87 83 84 85 84 87 95 101 100 97 95 94 93 92 93 94 93 94 95 92 91 88 85 86
87 88 89 88 86 83 79 80 87 84 72 71 78 81 73 62 61 66 63 63 68 64 58 59 63 66 65 60 56 55 55 55 57 59 62 65 66 65 65 65 65 65 66 66 66 68 70 73 73 67 65 66 62 62 72 84 91 95 96 94 89 83 80 80 81 81 82 90 98 96 89 89 96 98 95 97 98 95 95 95 93 92 90 88 92
88 88 89 89 87 84 80 78 79 76 64 59 73 83 74 62 62 60 56 64 75 74 70 69 66 65 65 61 58 56 54 55 57 59 64 67 65 63 64 67 67 65 63 61 61 64 72 79 77 69 67 67 63 65 77 87 92 92 91 89 86 82 79 79 81 81 82 86 90 92 90 90 96 100 98 98 98 96 97 99 98 96 95 94 95
89 89 88 89 88 83 80 79 79 76 68 67 78 82 73 66 58 48 49 61 70 74 75 72 67 65 65 62 59 56 53 54 57 61 67 69 66 64 66 67 65 62 60 60 60 64 74 80 76 70 70 70 66 67 73 78 80 83 86 87 86 84 80 79 82 82 81 84 87 91 92 89 90 91 90 92 94 96 98 99 100 99 96 93 91
89 89 87 87 86 81 78 80 80 76 72 75 80 78 74 68 54 47 60 73 76 77 77 72 67 66 64 61 58 55 53 55 60 65 70 71 68 67 67 66 64 63 62 63 64 69 76 78 74 72 73 72 71 69 67 69 73 79 87 90 92 91 84 80 82 81 80 84 85 84 82 81 82 81 80 84 88 94 100 100 99 100 96 94 92
89 88 86 85 83 79 76 74 74 75 76 79 83 80 74 67 58 60 75 82 79 76 74 70 68 67 64 60 57 55 55 58 64 71 73 72 69 67 67 66 66 66 64 64 66 72 76 75 74 76 76 74 71 68 66 72 77 84 93 97 97 97 91 85 82 81 81 82 80 77 77 81 85 84 78 76 76 82 96 100 98 99 99 98 95
89 86 85 84 83 78 74 69 70 76 79 79 80 76 68 64 64 68 75 77 72 69 69 70 70 68 65 61 58 57 60 64 68 72 73 71 69 68 69 70 69 66 63 64 67 72 74 75 75 78 76 70 67 67 72 80 83 87 96 100 99 99 94 88 84 81 80 79 77 77 79 82 86 82 73 66 63 67 82 92 94 97 100 99 98
88 86 85 85 82 77 71 68 72 79 80 78 78 73 64 64 67 67 68 70 69 69 71 72 71 69 66 63 61 64 68 68 68 69 69 69 70 70 71 70 67 64 65 67 70 72 73 75 76 75 71 66 67 73 81 87 90 93 97 98 99 97 90 85 84 81 79 80 81 82 81 78 74 68 61 59 58 60 68 78 86 94 99 100 99
87 86 87 86 80 74 70 68 73 79 80 79 79 75 69 66 65 65 65 67 69 72 74 74 73 70 67 66 68 71 71 70 68 67 68 70 71 72 70 67 66 68 70 72 75 76 77 77 78 74 69 66 71 78 83 84 87 92 95 94 93 90 86 84 83 80 79 82 82 80 79 74 66 59 56 57 58 59 63 68 75 85 95 100 101
86 87 88 85 79 75 72 70 73 79 81 80 79 77 71 68 66 64 62 63 68 73 76 76 76 74 73 73 74 72 70 70 70 71 72 73 73 71 68 68 70 73 76 79 81 83 84 82 78 72 68 69 73 77 78 78 82 88 90 89 87 87 86 85 81 79 78 79 79 79 75 73 69 63 60 59 55 55 60 66 71 79 87 93 96
86 87 88 84 81 81 79 76 76 79 79 78 79 77 73 70 68 63 62 68 76 79 80 80 80 79 78 77 74 70 67 68 71 74 75 75 72 70 70 72 74 77 81 86 87 88 86 81 75 71 69 71 73 75 77 81 86 88 88 87 88 88 86 82 77 77 76 75 80 82 75 74 79 75 66 61 54 50 55 65 73 82 86 84 84
85 88 89 87 86 87 86 83 83 82 80 78 77 75 73 69 64 62 68 78 84 85 85 84 82 82 80 74 69 67 66 68 72 75 74 73 71 70 72 73 74 77 84 89 90 89 84 77 73 71 70 73 77 82 87 89 88 88 87 87 87 84 80 76 74 73 74 76 85 87 76 73 80 78 67 60 52 48 57 69 79 86 88 84 82
87 90 91 91 90 90 89 88 87 85 81 78 75 72 69 64 63 69 78 85 88 87 86 85 82 80 76 69 67 69 70 72 75 74 73 73 73 72 72 73 76 82 89 92 89 84 78 74 73 74 76 82 88 91 91 89 87 87 86 84 82 78 73 71 69 70 76 84 90 86 71 64 67 66 61 57 51 50 63 77 83 84 82 80 80
88 92 92 92 90 90 90 89 87 84 80 77 73 68 63 62 70 81 87 87 87 85 83 82 80 77 71 67 69 72 75 77 78 77 76 76 76 76 78 81 86 91 92 90 84 79 76 75 77 81 87 91 93 92 90 89 88 86 82 79 76 71 66 66 66 68 74 78 79 73 62 55 56 55 54 54 53 55 69 84 89 88 85 87 89
89 92 92 91 90 89 88 86 84 81 77 72 69 67 68 73 83 89 88 86 86 83 81 80 77 74 72 72 75 77 79 81 81 79 79 81 83 86 89 91 93 91 87 83 79 76 77 79 82 90 98 99 97 96 95 91 86 81 77 73 67 62 60 61 63 64 65 65 65 61 54 51 54 56 56 57 55 57 70 83 91 93 92 97 99
87 90 89 89 88 86 84 82 81 80 79 78 78 82 86 88 89 88 85 85 83 81 79 77 74 73 74 76 80 84 87 86 82 80 84 89 93 95 95 92 88 83 79 78 75 74 80 83 83 89 95 95 93 91 87 81 75 70 66 61 56 52 53 55 56 57 57 58 59 58 52 51 55 60 63 64 60 60 70 79 86 92 95 98 99
84 84 83 84 84 82 81 81 82 84 87 90 92 95 96 93 90 87 86 84 81 79 77 75 73 75 75 75 80 87 88 85 82 83 91 97 99 98 92 84 80 77 75 75 73 76 84 85 80 78 80 79 76 74 70 66 62 57 53 50 47 45 47 50 51 52 53 53 54 56 56 58 61 65 70 70 64 62 70 79 85 91 95 98 99
81 80 78 77 78 78 78 79 82 83 86 88 91 95 98 96 92 88 85 83 81 80 78 77 76 76 75 74 77 81 82 82 85 91 97 99 96 90 82 77 77 76 73 73 77 81 86 83 77 73 72 69 66 62 59 55 50 44 42 44 44 41 43 47 49 52 53 52 52 55 61 66 69 70 75 77 71 67 70 76 84 91 94 96 98
84 82 79 80 82 83 82 83 85 85 85 87 89 93 96 96 93 90 87 84 83 81 80 79 78 77 75 74 74 75 76 79 84 89 91 90 85 79 75 76 76 74 72 76 81 83 81 77 74 72 70 67 64 59 53 49 43 36 32 34 34 33 35 42 50 54 54 52 50 53 59 65 69 71 75 78 77 75 72 73 79 87 92 95 98
88 86 85 86 87 85 83 84 84 84 87 91 92 92 92 92 92 92 89 85 84 83 82 80 78 76 75 73 73 73 74 77 80 81 79 77 74 73 75 77 75 72 74 77 79 77 75 73 73 70 65 63 61 57 51 47 43 37 30 24 21 24 34 47 55 57 54 51 51 55 60 63 65 68 71 75 79 79 77 75 78 84 89 92 95
88 87 84 83 81 80 81 82 81 82 87 92 92 91 90 89 89 90 89 86 83 82 80 78 77 76 75 74 75 75 75 75 73 68 63 62 63 69 77 80 76 73 75 75 75 74 73 71 69 64 59 57 54 50 46 43 41 39 31 19 13 21 38 53 58 55 51 50 54 58 59 59 61 64 66 70 75 79 80 79 79 83 88 92 94
81 79 77 79 82 83 84 82 81 83 88 90 90 91 90 87 86 86 86 85 83 82 81 81 81 79 78 77 76 74 70 66 61 57 56 60 65 72 79 81 78 75 75 74 74 73 70 67 65 61 56 52 48 44 41 36 32 29 22 12 13 29 47 57 59 54 49 49 54 56 54 53 58 66 69 69 71 77 80 79 77 79 85 90 93
71 68 71 77 81 84 84 82 80 84 88 89 91 92 90 87 85 83 80 81 83 85 85 85 83 81 78 75 71 66 60 57 56 57 62 69 75 78 79 77 76 74 73 72 71 68 67 67 64 59 53 48 46 47 43 30 20 16 11 10 23 45 57 60 59 53 47 48 53 54 51 50 54 62 69 71 73 77 80 79 76 77 82 86 90
62 61 69 75 77 81 85 84 82 83 86 88 91 93 92 89 85 81 79 79 81 84 85 83 80 78 75 70 66 61 57 56 58 63 67 72 76 79 78 76 76 74 72 72 70 68 69 68 62 57 53 50 50 53 44 24 10 8 7 15 36 56 61 61 61 54 47 48 53 53 49 48 50 56 64 71 73 75 78 78 77 77 79 81 86
69 71 78 81 82 84 87 88 86 86 87 89 93 95 95 91 86 82 82 82 81 82 83 80 77 75 72 69 66 63 60 61 66 70 72 73 73 74 74 75 77 75 72 71 68 67 68 65 60 58 57 53 54 53 39 18 7 6 12 30 52 63 62 62 63 57 48 47 51 52 49 47 47 52 62 71 74 73 74 75 75 75 74 75 80
74 75 79 85 89 91 90 90 90 89 88 89 90 90 90 89 88 86 85 84 83 82 80 77 75 73 70 70 69 67 67 70 73 74 75 75 74 72 69 70 74 74 71 67 64 62 61 59 58 60 58 54 55 50 31 12 5 7 21 45 61 62 61 63 64 60 53 48 49 51 49 45 44 47 56 67 73 73 73 73 73 74 73 72 75
67 68 73 79 84 84 84 87 88 87 86 86 87 86 87 89 91 92 92 91 87 83 79 76 73 70 68 69 69 70 73 77 76 74 75 77 78 74 70 70 73 72 69 67 62 58 56 55 56 58 56 54 55 47 24 8 5 11 28 51 62 59 61 65 64 63 59 51 48 50 48 45 44 45 49 59 68 71 71 72 72 73 74 72 72
64 67 69 71 72 71 75 79 82 83 84 84 85 87 90 93 95 95 98 98 92 84 78 75 72 70 69 68 68 73 79 79 73 71 73 77 78 74 71 71 73 71 69 67 62 58 57 55 56 58 56 53 56 48 24 8 6 11 27 50 61 60 63 66 65 64 62 54 49 49 47 44 45 45 46 54 61 63 65 69 70 69 70 69 70
67 71 70 68 65 65 69 73 74 77 81 84 88 90 92 95 98 98 99 101 96 87 80 76 73 72 72 70 72 79 81 72 65 66 71 74 75 74 71 70 72 71 68 64 61 60 60 58 58 59 55 53 56 49 26 9 7 9 19 42 59 62 64 66 65 62 61 56 51 50 47 43 45 48 49 51 52 54 58 63 66 67 67 67 69
65 65 66 67 65 64 68 71 73 78 82 85 88 91 93 96 100 99 99 101 99 92 84 79 77 76 74 73 78 82 76 63 60 66 70 71 72 72 70 70 71 70 65 61 60 60 61 60 59 58 55 54 57 47 23 8 8 9 12 32 57 65 63 65 65 62 59 56 52 50 48 44 43 47 50 48 45 48 54 57 60 64 66 64 66
77 72 73 74 70 67 68 71 73 77 80 80 83 89 95 98 100 100 100 100 100 96 90 84 82 81 77 76 81 83 73 62 61 67 70 70 71 71 69 69 70 68 64 62 62 61 61 62 60 58 56 57 55 44 25 12 11 9 8 23 50 65 65 64 65 61 59 56 52 50 49 46 42 45 50 47 43 46 52 54 56 62 66 65 66
90 87 85 83 77 72 72 74 75 77 78 79 83 90 97 99 99 100 100 100 99 98 94 88 85 84 81 81 85 84 71 61 61 66 69 71 71 70 67 67 68 68 66 64 63 61 62 62 60 57 58 58 52 45 36 24 14 10 8 16 38 59 66 65 63 61 59 54 49 49 51 46 40 44 50 47 43 47 52 55 58 64 66 66 67
83 83 82 81 80 78 78 78 79 79 80 82 86 91 94 95 96 98 99 99 99 98 94 89 87 86 84 86 88 81 67 59 60 65 69 69 69 69 66 63 63 64 64 63 63 62 61 61 59 57 59 57 52 49 46 35 22 15 11 11 22 44 62 66 62 60 59 51 44 48 53 45 38 45 53 48 44 48 52 54 58 65 69 71 71
79 79 78 79 80 80 80 79 80 82 83 84 86 89 89 90 91 92 92 93 93 92 89 88 87 86 86 89 88 77 63 57 58 62 65 65 65 67 66 61 59 60 59 59 60 61 59 60 60 58 57 57 54 54 54 49 41 37 32 22 16 28 52 68 66 60 57 51 43 47 52 44 38 47 55 48 43 46 49 49 54 62 69 73 72
79 78 78 79 77 78 80 81 82 84 85 84 85 85 85 84 86 86 86 86 86 86 84 83 82 81 84 87 83 72 61 56 55 56 57 57 59 64 67 65 62 62 60 58 59 60 60 60 60 58 57 56 56 57 58 57 55 53 52 45 31 23 35 58 67 63 58 52 47 48 50 45 42 50 54 47 43 46 45 46 53 59 62 67 68
81 79 79 78 75 75 80 82 81 82 84 83 83 81 79 78 79 81 83 84 84 83 82 80 77 77 79 81 78 70 62 56 53 52 52 51 53 59 66 69 68 66 64 62 61 62 61 60 59 58 56 55 57 58 58 58 58 56 55 56 51 36 28 40 59 65 61 53 48 48 48 44 46 53 53 46 45 47 44 44 52 56 55 57 60
80 78 77 76 75 76 80 81 81 82 82 82 82 81 79 78 77 76 77 79 79 80 79 77 76 76 77 76 73 69 64 58 53 51 50 50 51 54 61 68 70 68 65 64 64 63 62 60 59 57 56 54 56 58 58 58 60 60 56 56 59 51 35 30 45 62 65 55 48 48 48 45 48 53 52 46 46 48 44 43 50 55 52 50 52
80 78 78 77 76 77 79 80 81 82 82 83 83 83 82 81 79 76 75 76 76 77 77 75 74 74 75 74 73 70 66 62 56 51 49 50 51 53 57 64 69 68 65 64 65 65 63 61 58 56 55 55 55 58 59 58 58 60 59 56 58 57 43 29 36 56 66 57 48 47 48 47 48 52 51 47 47 47 44 44 49 52 51 49 49
80 80 80 79 78 80 81 81 81 80 78 78 78 77 78 79 80 81 80 78 76 75 73 73 72 72 71 70 70 70 68 64 59 52 49 50 52 54 56 59 64 66 64 64 65 65 64 61 57 55 56 57 56 56 59 59 58 59 60 58 58 56 44 29 33 53 65 57 47 46 48 48 49 51 50 48 48 48 46 45 48 50 49 47 44
Wind_Speed
38 37 35 35 35 36 35 34 32 29 27 25 24 22 21 19 18 17 17 17 17 18 18 17 16 15 15 14 13 13 13 13 12 12 13 13 13 13 13 14 14 14 14 14 15 16 17 17 18 17 17 18 18 18 19 19 19 18 17 17 17 17 17 15 10 13 23 25 23 27 29 28 29 32 33 35 35 31 29 27 26 27 29 29 30
38 36 35 36 37 37 36 34 32 29 27 25 23 21 20 19 17 18 18 18 18 19 18 17 17 17 17 16 15 14 14 14 14 14 14 15 15 15 15 15 15 15 15 15 15 16 18 19 20 19 18 18 19 18 19 19 19 20 19 18 20 20 19 20 17 13 19 27 26 27 30 28 28 33 34 35 36 36 32 30 28 28 29 30 31
37 35 35 36 37 37 35 34 32 30 28 26 22 20 20 19 18 19 19 18 19 18 17 18 18 18 18 18 17 16 17 17 16 16 17 17 18 18 18 18 17 17 17 17 17 17 18 20 20 20 19 19 20 19 19 19 19 20 21 21 21 22 22 22 21 18 19 26 27 26 28 28 29 34 35 35 36 35 33 32 31 30 30 30 32
34 34 35 35 35 36 34 33 33 32 31 27 23 21 21 20 19 21 20 19 19 18 17 18 19 19 20 19 19 19 19 19 19 18 19 19 19 19 19 19 20 20 20 19 19 18 19 20 20 20 19 20 20 19 18 19 19 20 21 22 22 24 25 24 24 24 22 24 27 27 27 29 32 34 33 34 35 34 33 33 32 31 32 31 32
33 33 33 33 33 33 34 36 36 33 30 26 22 22 23 22 21 21 21 20 18 17 18 19 20 21 22 21 20 20 21 21 21 20 19 18 17 16 16 17 18 19 19 19 19 19 19 20 20 20 19 20 20 20 19 18 19 20 21 22 22 24 25 25 26 25 23 24 27 29 28 29 31 32 32 31 31 29 30 33 34 32 32 33 32
31 32 32 31 33 35 35 32 27 23 22 21 20 22 24 23 22 21 21 20 19 18 19 20 21 23 23 22 22 22 22 22 21 20 18 15 14 13 12 14 15 15 17 17 18 19 19 19 20 20 20 20 20 19 19 18 18 20 21 21 22 22 23 25 25 23 23 25 27 28 29 28 28 30 31 30 27 25 25 29 32 32 31 32 32
32 32 32 34 35 32 24 19 19 20 22 21 21 25 27 25 23 22 21 20 20 21 22 23 23 23 24 23 22 22 21 21 19 17 15 13 12 11 12 13 14 14 15 16 17 18 18 19 19 19 19 20 20 19 18 18 18 19 21 21 20 20 21 22 23 22 22 22 23 25 26 26 26 28 30 29 27 26 24 22 24 29 31 31 32
32 32 33 34 29 24 23 24 30 33 31 28 29 29 29 28 24 22 21 22 22 23 24 25 24 23 24 22 20 19 18 18 17 15 14 13 12 12 12 13 13 14 14 15 16 17 18 18 18 18 19 19 20 20 19 18 19 19 21 21 20 19 20 20 21 21 18 16 18 21 23 24 25 26 28 27 24 24 25 22 21 26 32 32 32
33 33 33 30 26 29 36 40 40 37 34 34 34 32 32 30 26 23 23 23 23 24 26 27 25 23 23 21 19 18 17 18 17 16 16 15 14 14 13 14 14 14 15 16 17 18 18 18 18 17 17 18 18 19 19 19 20 21 21 21 20 20 20 20 20 18 15 14 16 19 20 22 24 23 24 24 22 21 24 24 23 26 32 32 32
34 33 30 29 31 36 42 42 39 38 37 37 36 34 32 30 27 25 24 23 23 24 27 28 26 24 23 20 19 19 18 18 17 16 16 16 15 15 15 16 17 17 17 17 18 19 18 18 17 16 16 16 16 17 19 20 21 22 22 21 20 20 20 20 18 16 14 14 16 17 18 21 23 23 23 24 23 23 23 23 22 25 29 28 28
32 31 30 32 35 37 39 38 36 35 33 33 33 31 30 30 29 27 25 24 26 28 28 27 26 25 23 21 20 20 19 18 16 14 14 14 15 16 17 18 19 19 19 19 18 19 18 17 17 16 16 16 16 18 19 20 21 22 22 21 20 21 21 20 19 18 16 15 15 16 18 21 24 23 24 24 22 22 22 22 22 25 26 22 20
29 30 33 34 35 36 38 34 30 30 29 29 30 30 30 29 28 27 25 26 29 30 29 27 27 26 24 23 23 22 20 18 16 15 15 15 16 18 19 19 19 19 19 19 19 19 19 18 18 17 17 17 18 19 20 21 21 20 20 20 20 20 21 20 20 20 18 16 16 18 19 23 25 25 25 24 22 23 24 22 24 27 27 22 18
30 32 34 34 35 36 35 30 29 28 26 23 26 28 28 28 27 27 27 28 30 30 30 29 28 27 25 24 25 24 21 19 17 17 17 18 18 19 20 19 18 18 17 18 19 19 20 21 19 18 18 18 19 20 20 19 18 17 18 19 20 21 21 21 20 20 21 19 17 19 22 22 23 25 27 25 24 27 27 24 26 28 28 27 25
32 33 34 33 32 31 29 28 29 29 27 26 26 25 24 26 26 26 27 30 31 30 30 29 28 27 27 26 26 25 23 21 19 19 19 19 18 17 17 17 16 16 16 17 18 19 21 21 19 17 17 18 20 22 19 17 16 17 18 19 21 21 21 21 20 19 21 21 20 23 26 26 23 24 28 27 26 29 29 27 29 31 32 31 31
31 31 31 29 28 27 27 28 29 29 32 33 28 24 24 27 26 26 30 31 30 29 29 29 28 28 28 26 26 26 24 22 20 20 19 18 16 15 14 14 14 15 15 16 18 19 20 19 17 15 16 18 20 20 18 16 16 18 20 21 22 22 22 21 19 18 20 22 22 24 26 27 26 25 28 29 28 30 30 29 30 31 32 32 30
27 26 26 26 27 28 30 30 29 30 31 32 29 27 29 31 30 31 31 30 29 28 28 28 28 28 28 27 27 26 25 22 21 20 18 16 15 14 13 14 14 15 16 17 17 17 17 16 14 14 16 17 18 16 16 17 18 19 20 21 22 23 23 21 17 18 21 22 22 23 24 27 29 28 29 29 29 30 29 27 29 29 29 28 28
24 24 25 27 29 31 33 33 32 32 34 34 33 33 34 34 34 32 28 26 26 26 26 26 26 26 27 27 27 26 24 22 19 18 17 15 15 14 14 15 15 16 16 16 17 16 14 14 13 13 15 15 15 16 17 18 19 19 19 19 19 20 21 20 18 20 22 22 23 25 27 28 28 28 28 27 26 26 24 25 27 28 25 21 20
24 26 28 30 32 34 34 32 32 34 36 36 35 35 35 34 32 29 25 23 25 25 25 25 25 26 28 28 26 25 23 20 17 16 15 14 14 14 15 15 15 15 16 15 15 15 13 13 12 12 13 14 16 19 20 18 19 19 17 15 14 16 18 19 21 22 23 23 26 27 27 27 26 26 27 26 25 24 22 23 26 26 23 19 19
26 29 32 33 33 35 34 32 32 35 37 36 36 36 35 31 28 26 24 24 24 24 24 24 26 28 29 28 26 23 21 17 14 13 13 13 14 14 15 15 15 14 14 14 14 14 13 13 11 11 12 15 17 19 19 17 18 17 14 13 13 15 17 18 20 22 24 25 27 27 27 27 24 23 24 25 26 26 23 23 24 24 25 24 25
29 31 32 33 34 36 35 34 35 37 37 36 36 35 33 30 27 25 24 24 24 24 24 24 26 28 28 27 24 21 18 15 12 11 12 13 15 15 14 14 14 13 13 13 13 14 14 14 12 12 13 15 17 17 16 15 15 14 13 14 14 13 15 17 18 21 23 24 25 25 26 25 23 23 25 27 28 29 28 27 26 25 27 29 31
29 30 31 33 35 37 37 36 36 37 37 36 34 33 31 30 28 26 23 22 22 23 25 25 26 26 25 23 20 17 15 13 11 11 13 14 15 15 13 13 13 12 11 12 13 14 15 15 14 14 15 16 16 16 14 13 14 14 13 12 11 11 14 18 19 20 21 22 23 22 22 21 23 25 27 28 29 30 32 33 32 31 30 31 35
28 30 31 33 35 36 36 35 35 34 34 33 31 30 30 29 28 26 23 22 23 25 25 24 23 22 21 19 17 16 14 11 10 11 13 14 14 13 12 12 11 10 11 12 13 14 15 15 15 16 16 16 16 15 14 14 13 12 9 8 10 13 15 17 18 19 19 19 19 19 19 20 22 24 26 28 30 31 33 35 35 35 34 34 36
27 29 31 33 33 33 33 33 32 31 30 30 29 27 27 26 25 24 23 24 24 25 24 22 20 19 18 16 16 15 14 13 11 12 13 13 12 11 11 11 10 11 11 12 13 14 15 15 16 16 15 16 16 15 14 11 9 7 7 9 12 15 15 16 17 17 17 17 15 16 18 19 19 22 26 29 30 32 33 35 35 35 36 37 38
26 29 30 31 31 30 30 30 30 28 28 28 27 25 23 22 23 24 24 24 24 23 21 20 19 18 17 15 14 13 13 13 13 13 13 12 11 11 11 10 11 11 12 12 13 15 15 15 16 15 15 15 14 10 7 6 6 7 8 11 13 14 14 15 16 15 15 14 12 13 17 19 18 21 26 29 30 32 33 34 34 35 35 37 40
26 27 28 28 29 28 27 27 27 27 27 27 26 25 23 22 25 27 25 24 23 21 19 19 19 18 16 14 12 10 10 11 13 14 13 11 10 10 10 10 11 11 12 13 14 14 14 15 15 14 13 10 7 3 4 5 6 8 9 10 12 13 13 13 13 12 12 11 11 13 17 20 21 23 26 28 30 32 32 33 34 35 36 38 41
25 25 25 26 27 27 26 25 26 26 26 26 26 26 26 26 28 28 25 22 20 19 18 18 17 15 14 12 10 9 9 10 12 12 10 9 9 9 9 9 10 11 12 13 14 13 12 13 13 11 7 3 4 5 5 6 7 8 9 11 11 11 11 10 10 10 11 11 13 15 19 22 23 24 26 28 30 31 31 31 32 34 36 38 39
23 22 23 24 25 25 26 26 26 26 26 25 25 26 27 28 28 26 23 20 19 18 17 16 15 14 13 11 10 9 9 10 10 9 9 8 8 8 9 9 10 11 12 13 12 11 10 9 8 5 3 5 6 6 6 7 8 8 9 9 9 9 8 8 8 9 11 12 14 16 19 22 24 25 27 28 30 31 31 29 29 31 35 35 33
22 22 23 24 24 24 25 25 26 26 24 22 22 21 22 23 23 22 20 18 18 17 17 16 14 13 11 10 9 8 8 10 10 9 8 8 8 9 10 10 10 11 12 11 11 10 8 7 5 4 5 6 6 6 6 7 7 7 7 6 6 6 6 7 8 10 12 13 15 17 20 22 24 25 27 28 30 31 31 30 29 30 33 32 28
21 22 23 23 24 23 22 21 22 22 20 18 17 15 15 17 18 17 15 15 15 15 14 13 11 9 8 8 7 7 8 9 9 8 8 8 9 10 10 10 10 10 10 9 9 8 7 7 7 6 6 5 4 4 4 4 3 4 4 5 6 7 7 9 11 12 14 15 16 18 20 22 24 25 26 28 31 32 31 31 30 29 30 29 27
20 22 24 24 24 24 22 20 20 19 17 16 15 13 12 12 12 12 11 11 12 11 9 8 7 7 6 6 7 7 7 8 8 8 8 9 9 9 9 8 8 8 7 7 6 6 8 9 8 6 5 3 2 1 1 2 3 4 5 5 7 9 10 11 12 13 14 15 17 18 19 21 23 25 25 27 30 32 31 30 28 27 28 28 27
19 20 21 21 22 22 21 20 18 16 15 15 16 15 12 10 9 9 8 8 7 7 6 5 5 5 5 6 6 7 6 5 5 5 6 7 7 7 7 6 6 5 5 4 5 7 9 8 6 4 3 1 0 1 2 3 4 6 7 8 9 11 12 12 13 14 14 15 16 17 19 20 22 24 25 25 28 30 31 31 30 27 27 27 26
19 19 19 18 18 18 18 19 18 16 15 17 17 17 15 13 11 9 8 7 7 6 5 5 5 6 6 6 6 5 4 3 3 3 4 5 5 5 4 4 4 4 4 4 5 7 7 6 4 3 2 1 1 1 2 3 4 6 9 10 11 12 12 12 12 12 13 14 16 17 18 20 22 24 25 25 26 28 29 30 30 28 26 27 28
21 22 22 20 19 19 20 20 19 17 18 19 18 17 17 16 15 13 11 9 8 7 6 6 6 7 7 6 4 3 3 2 1 1 2 3 3 3 4 4 5 4 5 6 6 6 6 5 4 3 2 2 2 1 2 3 5 7 9 10 11 11 11 11 11 11 12 13 15 17 18 20 22 24 25 26 25 25 26 27 28 26 24 25 27
21 20 22 23 23 23 22 20 17 17 18 18 17 16 16 16 16 16 15 13 11 9 8 8 8 8 7 5 4 3 2 2 1 2 3 2 1 3 4 5 5 5 5 6 6 6 5 5 4 4 3 2 2 2 3 4 6 8 9 9 9 9 9 9 9 11 12 13 15 17 18 19 21 23 24 26 26 25 24 25 26 25 23 22 24
16 14 16 19 19 19 18 17 16 16 16 16 16 16 15 15 16 16 16 15 15 14 12 11 9 8 6 6 5 4 4 3 2 3 4 3 2 3 4 4 4 4 4 4 4 4 4 4 4 3 2 2 2 3 5 5 6 8 8 9 9 8 8 9 10 11 12 14 15 16 17 19 21 22 23 24 24 23 23 23 24 23 22 22 24
14 12 11 12 13 14 15 15 16 16 16 16 16 15 14 15 16 16 15 15 16 16 15 13 11 9 7 7 6 6 5 3 1 3 3 2 2 3 4 3 3 3 3 3 3 3 3 3 3 3 2 2 2 4 6 6 6 7 8 8 8 7 8 9 10 11 13 13 14 16 17 19 21 22 23 23 22 21 21 21 21 20 21 22 23
13 11 9 10 11 13 15 15 15 16 16 16 16 14 13 14 15 15 14 14 15 15 15 15 14 13 11 10 9 7 5 3 1 1 1 1 2 3 4 5 5 5 4 4 3 3 3 3 3 2 2 1 3 5 6 6 6 6 6 6 6 6 7 8 9 11 12 13 13 15 17 19 20 22 22 22 22 21 21 21 20 20 22 24 23
9 8 8 10 13 14 15 15 15 15 15 15 15 15 14 14 14 14 14 14 14 16 16 17 16 15 15 13 11 9 6 5 3 4 4 4 4 4 4 4 5 5 5 4 4 4 4 4 3 2 2 1 3 6 6 5 5 5 5 5 5 5 6 7 8 10 11 13 14 15 17 19 20 21 22 22 20 20 21 22 21 20 22 24 23
6 6 9 11 13 14 14 14 14 14 15 15 15 15 15 15 14 14 13 13 15 17 18 18 18 16 15 13 11 10 8 6 5 5 5 5 5 5 4 4 4 5 5 5 5 5 5 5 3 2 1 1 4 6 6 5 5 5 5 4 4 5 6 7 8 10 11 13 15 15 17 18 19 20 22 22 21 21 22 22 21 19 19 22 22
8 11 12 13 14 13 12 13 13 13 14 14 15 15 15 14 13 13 12 12 16 19 20 19 18 16 13 12 11 10 8 6 6 5 5 5 5 6 6 5 5 5 6 6 6 7 6 4 3 2 1 1 4 6 6 5 4 4 4 3 4 5 6 7 8 10 11 13 15 15 16 18 18 20 21 22 22 22 22 22 22 22 21 21 22
11 13 14 13 13 12 12 12 12 12 13 14 14 15 15 14 12 12 12 12 15 19 20 19 17 15 13 12 11 9 6 6 6 5 5 6 6 7 7 7 6 6 6 7 8 8 6 4 3 3 2 1 4 6 6 5 4 4 4 3 3 4 6 7 8 9 10 13 15 15 16 17 18 19 21 21 22 23 23 23 23 23 22 22 22
16 17 16 14 13 13 13 13 12 12 12 13 14 15 15 14 12 12 12 11 13 17 20 19 16 15 14 13 12 10 8 8 7 6 6 7 8 8 8 8 7 7 7 8 8 8 6 5 4 4 2 2 5 6 6 4 3 3 3 3 3 4 5 7 8 9 10 12 14 15 16 17 17 18 19 20 21 22 23 23 23 23 23 24 22
12 14 15 14 14 13 12 13 13 12 13 14 15 15 13 11 10 10 11 11 12 15 17 18 16 15 15 14 13 12 11 10 9 8 8 9 9 8 8 8 7 7 8 8 9 8 7 6 5 4 2 3 4 5 5 4 3 3 3 3 3 3 5 6 7 8 9 11 13 14 15 16 17 17 18 19 20 20 21 23 23 23 22 23 22
6 10 11 11 12 11 11 12 12 13 13 15 15 14 13 12 11 11 11 11 11 13 15 16 15 16 16 16 16 15 14 12 11 10 10 10 9 9 8 7 8 8 9 10 9 8 7 7 5 4 3 3 3 3 4 4 4 4 4 3 3 3 4 6 7 9 10 12 14 14 14 15 16 16 17 18 18 19 20 21 22 22 22 22 22
14 15 14 13 13 12 11 11 11 12 12 13 14 13 13 13 13 13 13 12 12 12 14 15 15 16 17 18 18 17 16 14 12 12 11 10 10 9 8 7 8 9 10 11 10 8 7 7 5 4 3 2 1 2 4 6 6 5 5 5 3 3 4 6 7 8 10 13 14 13 14 15 16 15 16 17 17 18 19 19 20 21 20 20 20
18 17 16 15 14 12 12 11 11 11 11 12 12 13 12 12 12 12 13 14 13 14 15 15 15 16 17 18 18 18 16 14 13 13 12 11 10 9 8 9 9 9 10 10 10 9 7 6 5 4 3 2 0 2 5 7 8 7 7 7 5 4 4 5 6 7 9 12 13 12 12 14 15 13 13 14 15 16 17 18 19 20 19 18 19
13 12 13 13 12 11 11 10 10 10 10 10 11 11 11 11 11 12 13 14 14 14 15 15 15 16 18 19 19 18 17 16 15 14 13 12 11 10 10 10 10 10 10 11 11 10 8 7 5 4 4 3 2 1 4 6 8 8 9 9 8 6 5 4 5 6 8 10 11 11 11 13 13 12 12 13 13 15 16 16 17 19 19 18 18
9 9 10 10 9 9 10 10 10 10 10 9 9 10 10 10 11 12 13 14 14 15 15 15 16 17 18 20 20 20 18 18 17 16 15 13 12 11 11 12 12 13 13 12 12 11 9 8 6 5 5 4 3 1 1 4 6 8 9 11 11 9 7 5 5 5 6 9 10 9 9 11 11 10 10 11 12 13 15 15 15 17 18 19 20
8 9 9 9 8 8 9 9 9 9 8 8 8 9 9 10 11 12 13 14 15 16 16 16 17 18 19 20 21 21 21 20 19 18 17 15 13 13 13 13 13 14 15 14 14 13 11 9 8 7 6 6 5 3 1 1 3 5 7 10 11 11 9 6 5 4 5 7 8 7 7 9 10 8 8 9 10 10 12 14 13 15 17 18 20
8 8 9 8 7 7 7 7 8 7 6 5 6 6 7 9 11 12 13 15 16 17 18 19 19 20 21 21 22 23 23 23 22 21 19 18 16 15 15 14 14 15 16 16 15 14 13 11 9 8 8 7 6 5 4 2 3 4 6 9 11 13 11 7 5 4 4 6 7 6 6 8 8 7 7 8 8 9 11 12 12 13 16 17 18
9 9 9 8 7 7 7 6 6 5 4 4 4 5 6 8 10 13 15 16 18 19 21 21 22 22 22 23 23 24 25 25 24 22 21 20 19 18 17 16 16 16 17 17 17 16 15 13 11 9 9 9 8 7 6 4 4 5 6 8 11 13 11 7 4 3 3 5 6 5 5 7 8 7 6 7 8 9 10 11 11 12 14 16 17
Wind_Direction
214 213 210 209 211 213 214 214 214 213 210 211 215 215 214 215 218 218 215 217 217 213 214 216 220 225 229 231 230 230 233 235 237 240 244 248 252 256 261 263 265 267 271 274 274 274 274 273 273 273 274 276 276 275 272 267 263 262 263 264 263 261 255 245 240 270 282 283 286 293 299 302 304 309 312 314 317 317 314 313 316 321 324 326 329
213 211 209 208 210 212 212 210 209 208 207 210 213 214 215 217 219 218 217 218 216 214 217 222 228 231 233 235 235 236 240 244 246 249 252 254 255 257 259 261 263 267 271 276 278 277 276 274 274 275 275 275 275 277 276 272 265 262 262 263 265 265 261 256 252 259 280 287 288 292 297 297 299 304 308 310 312 313 311 310 313 317 321 323 324
212 210 208 207 208 209 208 206 206 206 205 206 209 214 219 221 220 219 218 218 218 218 223 230 234 236 238 240 241 243 248 251 254 258 261 263 264 263 264 264 266 269 271 275 278 280 279 277 277 277 276 275 274 275 277 276 271 266 265 265 267 269 269 264 260 259 270 284 289 290 293 294 295 301 305 305 307 309 308 308 310 313 317 320 319
210 208 206 206 206 205 203 202 204 204 201 201 204 211 219 223 222 221 220 221 223 225 231 237 239 242 244 245 246 249 253 255 259 264 267 271 271 271 272 270 269 270 271 274 279 281 282 281 281 280 278 276 276 275 275 276 275 272 270 271 271 273 275 271 266 263 266 278 287 288 289 292 295 299 302 302 304 306 305 305 307 309 312 315 316
208 206 204 202 202 201 199 201 203 202 199 199 203 210 217 222 223 221 222 224 226 230 235 238 242 246 247 248 251 253 257 260 263 266 269 271 271 271 272 271 271 270 270 274 278 281 284 284 283 282 279 276 276 277 277 278 279 278 277 277 277 278 279 277 273 270 267 272 282 288 290 292 294 297 299 299 302 303 303 304 305 307 309 311 312
205 203 200 198 199 200 198 196 192 190 192 194 204 217 220 222 223 222 223 226 228 232 237 239 242 247 249 251 254 257 261 263 265 266 265 262 260 263 266 268 269 270 270 272 276 280 283 284 284 282 278 276 277 279 281 282 282 282 282 283 285 284 283 281 280 276 273 274 279 284 287 290 293 295 297 297 297 296 298 301 304 306 307 307 308
203 201 198 198 200 194 182 171 170 184 195 196 205 221 225 224 224 223 225 228 229 232 236 236 237 244 250 253 257 260 262 261 260 260 255 250 254 262 265 266 269 271 273 274 276 280 282 283 284 281 278 277 278 279 282 283 284 283 283 285 287 286 285 285 285 281 277 278 279 281 285 289 291 292 294 296 294 292 290 291 297 302 303 303 304
201 198 197 199 192 171 163 180 193 197 198 196 202 215 223 224 224 224 226 229 230 233 235 233 234 242 252 256 259 260 257 254 255 255 251 251 260 269 270 272 276 277 278 279 280 281 283 285 285 283 281 280 280 280 281 281 282 282 282 284 285 285 284 286 286 284 279 277 278 281 284 288 290 290 292 293 290 289 291 290 290 294 299 302 303
198 197 196 191 177 171 183 196 199 197 194 195 201 212 220 221 221 223 226 229 232 234 235 234 235 244 252 256 257 254 250 253 258 258 256 257 264 271 273 275 279 280 280 282 283 283 285 287 287 287 287 286 283 281 280 279 278 277 278 280 281 282 283 283 283 281 276 273 276 281 285 287 288 288 288 287 283 284 291 293 290 292 298 299 299
196 193 188 183 182 186 193 196 196 194 193 195 202 210 217 218 218 222 225 228 230 232 234 235 237 243 251 253 251 247 249 256 260 259 259 262 266 269 271 273 275 276 278 279 281 284 287 288 289 290 290 290 289 288 286 283 278 274 274 276 277 279 279 278 277 275 272 271 273 280 284 284 285 286 284 284 284 286 290 290 290 294 298 297 296
192 188 184 185 188 191 193 193 190 190 194 198 203 210 217 217 216 220 223 225 227 231 236 239 241 245 251 251 246 244 250 257 257 256 258 262 265 268 270 272 273 273 274 275 277 283 287 288 287 287 289 293 295 295 294 290 284 277 273 272 273 275 274 271 271 273 271 268 270 275 278 281 285 287 285 285 286 288 289 290 291 293 295 295 296
188 187 186 188 190 191 193 189 181 185 196 204 209 214 218 218 218 219 222 225 230 235 240 243 246 249 252 248 243 244 251 256 254 254 258 261 264 267 267 268 269 270 271 272 275 281 285 285 283 283 286 293 298 300 298 294 288 281 275 273 273 273 272 270 270 272 271 268 272 274 274 281 287 287 285 286 288 291 293 293 293 290 289 291 289
190 189 189 190 191 191 191 182 173 182 196 207 218 220 216 216 221 222 223 229 235 240 244 246 250 253 251 245 243 246 252 256 256 258 261 264 266 267 265 264 264 266 267 270 276 280 283 282 280 280 284 290 298 303 303 299 292 286 281 279 275 273 272 272 272 273 273 271 270 273 277 281 283 284 287 289 291 294 294 293 293 290 288 290 286
192 191 190 191 190 188 184 174 170 181 192 204 222 228 217 216 224 225 228 235 238 240 243 247 252 254 249 244 245 248 253 258 261 263 265 268 270 268 266 261 259 262 268 273 278 281 282 281 279 280 284 290 298 302 302 298 294 290 287 281 277 275 272 272 274 277 278 275 273 277 283 285 282 283 290 294 293 293 293 293 293 291 289 289 287
193 190 188 187 184 181 175 166 170 186 195 200 216 229 223 221 224 222 227 236 239 241 245 248 252 252 248 245 245 248 254 259 262 266 268 269 270 269 266 260 259 265 273 278 281 282 282 279 278 281 288 295 300 300 299 298 293 289 286 283 281 279 275 276 280 282 284 285 283 283 286 288 287 288 291 293 292 290 291 291 290 290 290 289 288
190 186 182 181 182 180 172 167 178 194 197 199 212 223 223 222 222 220 224 234 240 244 247 248 250 251 247 244 243 247 253 258 261 266 269 267 267 266 263 261 265 271 277 282 284 285 283 278 278 285 293 298 300 296 295 295 291 285 283 282 283 282 281 282 286 287 290 293 292 290 290 291 293 293 293 293 293 294 297 295 292 292 292 292 291
185 181 178 179 181 179 174 173 183 194 197 200 209 215 217 218 219 219 224 232 237 242 245 247 250 250 246 243 242 245 251 256 260 266 267 264 262 262 260 262 268 273 278 283 286 286 284 281 284 292 297 299 299 295 294 292 286 283 281 282 282 283 286 290 294 294 296 298 298 298 298 300 301 303 304 303 304 305 302 295 290 292 293 292 291
181 179 181 182 179 176 175 177 186 195 199 203 208 212 216 217 218 220 226 235 239 243 247 250 251 249 245 242 241 244 250 255 258 263 264 262 260 258 260 264 268 274 279 284 287 287 285 287 295 302 302 301 298 294 292 288 283 283 283 282 283 286 294 300 301 300 302 303 305 307 308 310 311 311 313 315 316 315 303 290 290 292 291 287 288
183 183 185 184 178 176 177 183 192 197 201 205 209 212 216 220 222 225 231 240 246 249 251 251 251 248 244 241 241 243 247 251 255 261 265 263 259 258 261 265 270 276 282 285 287 287 287 292 301 306 303 301 296 292 291 287 283 283 280 281 286 291 299 305 306 307 309 310 311 313 314 316 315 315 319 321 322 321 312 300 298 295 290 289 290
188 188 186 183 180 181 186 192 196 198 200 206 209 211 214 220 224 229 236 243 249 253 253 250 248 246 242 240 240 241 243 246 251 259 261 259 259 261 263 267 272 276 281 284 286 287 291 296 303 307 305 301 295 293 295 291 283 280 281 284 288 292 300 306 307 310 311 311 313 315 315 318 321 322 325 325 324 325 321 316 311 302 295 294 292
190 188 185 183 184 187 192 197 199 199 201 206 209 211 215 221 225 230 240 250 255 254 251 246 244 243 241 240 237 234 236 244 250 254 256 255 258 263 265 267 270 273 277 283 286 290 295 299 304 309 308 302 296 295 297 293 285 281 281 283 284 290 299 303 305 310 311 311 314 315 316 321 325 326 328 328 328 328 326 322 319 313 305 296 292
189 188 186 186 189 192 196 200 202 201 202 206 209 212 217 222 227 233 244 254 255 250 244 240 238 237 237 234 230 229 238 251 252 250 253 256 259 263 264 264 267 271 278 283 286 291 297 301 304 307 305 302 298 295 294 292 285 276 271 273 280 286 293 301 307 312 312 312 313 314 317 323 326 327 330 330 330 330 326 323 322 318 313 303 296
191 189 187 188 192 194 196 200 203 204 205 208 210 214 218 224 230 237 245 249 246 240 235 231 229 228 228 225 226 236 250 260 258 254 256 258 259 259 259 262 269 275 279 283 287 292 296 299 301 303 304 303 301 298 292 284 268 253 256 270 278 284 293 303 309 310 310 312 313 313 319 325 326 327 329 329 330 329 326 324 323 319 315 311 307
193 190 188 189 191 193 195 200 204 205 206 209 212 216 221 228 238 245 247 242 235 229 226 222 219 218 219 222 229 241 250 254 254 255 257 257 256 255 259 265 272 277 280 283 286 289 293 297 300 304 307 306 303 297 279 248 235 247 263 272 279 289 300 306 309 310 312 316 316 314 321 327 325 326 328 329 329 328 325 324 323 319 316 315 314
194 190 188 189 191 193 195 198 201 202 203 207 211 214 219 231 244 247 242 232 225 220 216 214 213 214 218 225 233 238 241 242 244 248 252 252 252 255 262 267 271 275 278 281 283 286 292 298 302 307 312 309 296 261 222 227 244 260 269 278 287 297 305 306 310 317 320 319 317 317 324 329 329 329 331 330 329 328 327 326 325 324 325 325 323
193 190 189 190 192 193 193 193 195 198 201 205 209 213 219 229 238 237 229 221 217 214 211 211 212 215 222 230 233 235 237 237 237 241 244 247 253 259 263 265 268 273 277 278 282 288 295 299 302 306 308 281 214 201 221 244 259 267 276 287 294 300 307 312 321 331 330 325 323 323 327 331 332 332 334 332 330 329 329 329 326 325 329 329 327
191 188 188 190 190 190 191 191 192 195 200 204 209 216 223 228 228 224 219 214 211 209 210 211 212 216 222 227 228 230 233 233 234 236 240 247 256 260 261 263 266 272 276 279 285 293 293 289 290 290 256 214 210 219 237 253 265 274 280 290 296 303 314 323 332 338 335 331 328 327 330 333 334 335 336 334 331 331 332 332 327 324 328 329 325
190 188 187 187 188 190 192 192 192 194 198 203 208 214 220 222 220 219 217 215 212 211 212 214 217 222 222 219 216 218 225 232 238 242 245 252 258 258 259 262 266 273 278 282 289 293 280 259 246 225 208 213 225 239 252 259 269 278 285 293 302 312 324 332 338 341 340 338 335 333 335 336 336 337 337 334 332 333 335 335 331 327 330 332 327
191 189 189 189 191 194 196 195 194 193 192 192 194 199 206 210 211 212 214 215 215 217 220 224 227 227 221 214 212 213 223 237 244 247 248 252 254 254 257 264 272 279 285 287 290 282 251 221 208 204 209 221 235 243 253 262 272 292 306 314 324 336 344 346 345 345 344 343 341 340 340 338 337 338 338 335 334 337 337 335 334 332 333 333 329
192 191 192 192 196 200 201 200 199 195 189 185 183 183 188 196 200 201 204 208 211 215 222 227 227 221 215 214 215 218 231 245 246 242 242 245 247 251 262 274 281 283 284 284 275 248 215 203 204 214 225 240 256 262 296 317 329 334 336 341 348 351 353 351 349 347 345 344 345 345 344 342 339 339 339 335 335 337 339 338 335 334 335 334 329
193 194 194 192 193 194 195 195 192 188 185 186 185 179 170 163 168 180 186 189 193 197 203 208 207 204 205 209 211 215 226 237 233 229 235 241 249 261 273 277 273 267 265 259 235 210 203 202 205 215 227 231 224 34 9 351 346 347 351 356 357 354 353 351 348 348 347 346 348 349 348 346 343 341 339 337 335 336 340 342 341 339 338 335 330
194 193 192 186 182 184 189 190 185 180 181 184 183 179 168 152 142 144 152 160 164 164 166 175 187 194 198 204 208 208 207 208 215 232 248 258 270 280 274 256 245 238 231 225 213 207 208 207 199 195 196 175 123 57 8 350 348 351 354 356 354 352 352 349 347 349 350 350 352 354 353 351 348 344 342 340 338 337 339 341 342 340 338 337 334
198 192 186 182 180 185 191 190 183 178 179 181 180 178 173 161 147 136 132 137 142 144 152 167 181 189 192 195 198 194 185 186 210 282 306 304 292 273 247 230 225 222 222 225 226 219 211 201 186 172 158 140 122 65 9 353 349 351 354 354 350 349 349 347 346 350 353 355 359 360 358 356 352 348 346 345 342 339 338 339 341 340 339 339 335
201 191 183 181 183 186 189 188 181 177 180 182 180 178 176 171 163 152 143 138 137 142 154 164 171 176 178 176 174 164 145 128 82 35 21 10 257 225 223 220 220 222 227 233 234 221 200 182 167 160 153 138 114 54 20 2 350 349 351 352 350 350 350 351 355 359 359 1 4 4 1 359 356 352 349 347 345 342 339 339 342 342 340 337 333
205 192 182 181 183 185 186 185 182 181 182 181 180 179 176 175 173 167 160 156 154 156 158 159 160 163 163 160 156 145 131 116 66 37 40 62 135 180 195 202 210 218 222 225 222 208 192 176 163 159 156 133 86 35 16 7 357 351 350 351 354 357 359 2 5 5 3 4 5 4 2 1 359 356 351 348 345 341 338 338 341 342 341 337 334
209 199 188 187 188 187 185 184 184 185 184 181 180 178 175 175 175 173 170 169 167 165 162 159 157 156 157 162 164 157 147 135 65 32 40 69 143 186 203 218 230 231 220 213 208 196 185 173 167 163 150 114 47 17 10 8 3 355 350 351 356 1 6 8 7 6 5 5 4 3 3 2 2 359 356 351 346 341 337 335 336 338 341 341 338
204 194 188 189 189 186 183 182 181 181 179 177 175 171 167 170 174 174 173 173 172 170 166 164 163 163 168 175 177 174 173 179 204 299 314 293 239 236 249 257 256 246 231 220 210 193 179 175 178 173 146 89 18 8 9 8 4 360 355 356 3 9 12 11 7 5 5 4 3 4 5 4 3 1 358 351 345 341 340 339 337 338 343 347 346
193 191 193 190 187 182 177 174 173 173 173 176 178 176 170 169 173 176 176 176 177 175 174 173 174 176 179 181 183 186 195 211 240 266 276 276 273 275 278 271 257 244 231 216 197 185 184 185 188 182 156 67 6 8 11 7 5 7 5 5 10 12 10 9 7 4 4 5 6 6 5 4 3 3 360 354 346 342 343 343 342 342 344 348 350
183 200 200 190 182 177 172 170 170 172 174 177 181 179 173 170 173 176 176 177 181 182 181 181 184 187 189 188 188 193 204 222 248 264 268 270 277 285 289 282 258 236 223 206 187 184 186 182 177 177 175 5 2 8 11 7 5 13 16 12 11 8 7 9 9 6 4 5 6 6 5 4 2 2 1 358 352 347 347 347 347 347 345 345 347
187 192 188 179 173 169 168 170 172 175 177 181 182 180 177 177 179 180 179 181 185 186 187 188 190 192 194 196 198 201 212 234 254 263 263 264 270 274 279 279 261 235 221 205 190 187 186 178 174 190 214 338 357 3 6 6 11 19 19 13 11 10 11 12 12 9 6 5 5 5 5 3 2 2 2 360 356 354 354 353 352 354 355 353 351
190 182 175 169 165 163 164 169 175 181 184 185 184 184 186 186 185 184 185 186 187 189 192 195 196 194 195 201 206 211 226 246 252 253 253 255 259 263 270 273 259 236 222 206 193 191 190 188 197 215 228 320 354 359 0 2 9 17 16 15 16 14 12 12 11 10 8 4 2 3 4 3 2 2 1 359 359 0 2 1 358 357 1 3 359
190 179 171 166 164 165 166 170 176 182 184 186 189 192 193 190 188 187 187 187 187 190 194 198 200 200 200 203 209 219 235 243 241 240 245 248 251 258 266 266 252 234 220 206 198 201 209 213 215 222 242 326 350 354 355 356 3 14 17 15 13 10 10 10 10 10 9 5 2 2 3 2 1 1 1 1 2 3 5 6 5 2 3 7 7
181 171 164 162 165 168 170 173 177 180 184 190 195 196 193 188 186 186 186 186 187 191 193 196 200 203 204 206 212 223 233 236 234 237 243 244 247 256 262 256 239 224 216 210 209 216 224 224 221 228 261 318 340 349 358 6 14 18 14 7 1 5 8 8 8 9 8 6 4 3 3 2 360 359 1 2 3 5 7 9 9 7 5 7 10
161 158 156 160 168 172 173 175 178 180 185 191 194 193 192 191 190 188 188 188 187 190 195 198 200 203 205 208 213 221 228 230 230 232 237 238 241 251 255 241 224 217 216 216 219 224 226 226 226 236 260 294 327 356 16 27 28 23 15 4 354 355 360 2 6 7 5 3 3 3 4 3 360 358 0 3 3 5 9 11 11 10 8 9 12
180 178 173 173 175 175 172 173 178 182 185 189 190 190 193 197 196 193 192 191 189 194 200 203 203 206 208 211 215 220 225 228 229 231 234 236 240 247 243 225 216 216 217 220 224 227 223 221 228 240 253 270 317 23 39 42 42 36 24 12 357 346 350 356 0 2 1 360 1 1 1 1 0 359 360 2 3 6 10 14 15 13 11 11 12
178 177 175 175 175 175 174 175 180 185 188 190 191 191 195 200 201 198 197 197 198 203 205 205 206 209 212 215 218 220 224 227 230 232 234 235 238 239 228 215 212 216 218 220 223 223 217 216 227 243 252 248 232 60 52 51 50 44 32 20 5 345 339 346 352 357 357 357 359 360 359 359 360 0 1 1 2 6 12 18 22 20 16 14 15
171 170 170 172 172 173 176 178 180 184 189 193 193 192 196 202 204 205 206 206 208 210 211 210 212 215 217 218 220 221 223 226 230 231 230 231 234 232 220 212 213 218 219 219 220 219 215 217 228 241 246 233 196 100 60 53 51 44 35 25 13 353 332 325 338 350 353 354 356 359 358 357 358 360 4 5 4 7 13 21 26 27 26 24 23
164 161 165 169 171 176 180 181 180 185 191 195 196 196 200 204 207 209 211 212 214 216 216 217 220 221 222 222 223 222 223 226 229 230 227 227 231 231 224 218 217 220 221 222 223 221 217 218 229 239 240 229 212 188 65 46 43 37 30 24 15 1 339 316 317 336 346 350 355 357 357 358 359 1 7 9 8 10 17 24 28 32 35 34 32
162 162 167 172 175 178 180 180 181 186 192 195 197 199 202 207 211 215 217 219 221 222 223 225 227 228 227 226 224 223 224 226 228 228 226 224 227 232 231 225 223 223 224 226 228 226 221 219 227 235 234 227 221 219 233 5 19 20 17 15 10 2 346 319 302 312 330 341 349 353 354 357 1 4 10 14 13 16 22 26 29 36 43 42 39
166 168 170 169 169 173 178 182 187 196 206 212 212 212 215 219 223 225 226 226 226 226 227 230 232 233 233 230 226 223 224 226 226 226 224 222 224 229 231 230 229 230 230 230 232 230 224 221 225 229 226 224 225 228 235 270 325 346 355 359 360 357 348 324 291 287 314 333 344 349 352 359 5 11 17 20 21 24 28 30 32 40 47 48 45
168 166 167 169 171 174 176 179 184 196 212 226 234 240 244 243 242 240 238 236 235 234 234 235 236 237 237 235 231 227 226 226 226 224 223 222 222 225 228 230 232 232 231 231 232 231 226 223 224 224 221 221 225 229 236 255 292 317 333 345 350 351 347 329 283 264 294 325 339 343 349 1 11 20 28 31 32 32 33 33 36 44 50 52 51